User: anonymous   Login
Location: Unspecified
(0.0000°N, 0.0000°E)
Time: 20:10:18
(UTC+00:00)
Language:

USA 264 DEB - Orbit

View from above orbital plane
View from above orbital plane
View from above satellite
View from above satellite

Ground track
Ground track

The orbit data is extracted from the following two-line orbital elements,

1 40981U 15058R   19076.88055829 0.00000000  00000-0  00000-0 0    02
2 40981  63.4329 335.9046 0019000 159.2558 200.7442 13.40783058    04
Epoch (UTC): 17 March 2019 21:08:00
Eccentricity: 0.0019000
inclination: 63.4329°
perigee height: 1092 km
apogee height: 1120 km
right ascension of ascending node: 335.9046°
argument of perigee: 159.2558°
revolutions per day: 13.40783058
mean anomaly at epoch: 200.7442°
orbit number at epoch: 0

The dashed part of the orbit path shows where the satellite is in the earth's shadow,  

DLR